Location: Marcé
(47.5801°N, 0.3280°W)
Time: 18:56:09
(UTC+01:00)

Vanguard 2 Rocket - Pass Details

Date: 09 December 2021
Orbit: 553 x 3325 km, 32.9° (Epoch: 23 January)

Event Time Altitude Azimuth Distance (km) Brightness Sun altitude
Rises 22:31:16 0° 255° (WSW) 4,018 10.6 -52.4°
Enters shadow 22:34:00 - 241° (WSW) 3,550 10.1 -52.8°
Reaches altitude 10° 22:34:47 10° 237° (WSW) 3,459 - -52.9°
Maximum altitude 22:40:24 18° 198° (SSW) 3,487 - -53.7°
Drops below altitude 10° 22:47:57 10° 162° (SSE) 4,860 - -54.8°
Sets 22:54:31 0° 148° (SSE) 6,426 - -55.7°
